Wind_Speed
25 25 23 21 18 16 16 17 16 15 15 15 16 16 15 15 15 16 17 18 15 12 11 10 8 8 8 10 11 12 13 13 13 14 15 16 15 14 14 13 14 15 15 15 15 16 16 15 15 14 14 14 15 16 16 14 14 14 14 13 14 15 16 16 17 17 16 15 14 12 9 8 8 9
24 25 25 23 19 17 16 17 16 16 15 15 16 16 16 16 17 17 18 20 18 14 12 10 9 8 9 10 11 12 13 13 14 15 16 17 17 16 16 15 15 15 16 16 15 16 15 15 15 14 14 15 15 16 16 15 15 15 15 14 14 15 15 15 15 14 12 11 10 8 7 7 8 9
22 24 24 24 21 18 17 17 17 17 17 17 16 16 16 17 17 17 17 20 19 15 12 11 10 10 10 11 12 12 13 13 14 15 15 17 17 17 17 16 16 16 16 16 16 16 15 15 15 15 15 15 15 16 16 16 16 16 15 15 14 15 15 15 14 13 11 10 10 9 9 9 10 11
22 23 23 23 21 18 17 17 18 19 19 19 18 17 16 16 16 16 18 21 21 17 14 13 12 11 12 12 12 12 12 13 14 15 14 15 16 17 17 16 16 16 17 17 17 17 17 17 17 16 15 16 16 16 16 15 15 16 15 15 15 14 14 14 14 13 12 11 11 11 11 11 12 12
23 23 23 23 22 19 18 19 19 19 20 20 19 18 18 16 16 17 19 22 23 20 17 15 14 12 12 13 13 12 12 12 13 14 14 14 15 16 17 17 16 16 17 17 18 18 18 18 18 17 16 16 16 16 15 15 15 15 15 15 15 15 14 15 15 14 13 13 12 12 12 12 13 13
24 24 23 23 22 20 20 20 20 20 20 20 20 19 19 18 17 17 19 20 23 22 19 17 15 13 13 13 13 12 13 12 13 14 14 15 15 15 16 17 17 17 17 18 18 19 19 19 19 19 18 17 17 16 16 16 16 16 15 16 16 16 16 16 15 15 15 14 14 13 13 14 14 14
26 26 25 23 21 20 21 21 21 20 20 20 20 20 21 20 18 17 18 19 21 22 20 18 15 13 13 13 13 13 14 14 14 15 15 15 16 16 17 17 18 18 18 19 19 19 20 20 20 20 20 20 19 18 18 19 19 18 18 18 18 18 18 18 17 17 16 16 16 15 14 14 14 15
28 28 27 25 22 20 21 21 21 20 20 20 20 21 21 21 19 18 19 20 20 21 21 19 16 14 13 13 14 14 15 14 14 14 15 16 16 17 18 18 19 19 19 20 20 20 21 21 21 21 22 22 23 22 21 20 20 19 19 19 19 19 20 19 19 19 18 17 17 16 16 15 15 15
30 29 28 26 24 22 22 22 21 20 20 19 19 20 20 20 19 19 19 19 20 21 21 20 17 15 14 14 14 15 15 15 14 15 15 16 17 17 18 19 20 20 20 21 21 21 21 21 21 22 22 23 24 24 23 21 20 20 20 19 19 20 20 21 20 20 20 19 18 18 17 16 16 16
30 30 29 28 26 24 23 23 21 20 20 19 19 18 18 18 18 18 18 18 19 20 21 20 19 17 16 15 14 14 15 16 16 16 16 17 17 17 18 18 19 20 21 21 20 20 20 21 22 22 22 22 22 22 22 21 21 21 21 20 20 20 21 21 22 21 21 20 19 19 18 18 17 16
30 30 30 30 28 27 25 24 21 20 19 19 19 18 17 17 17 17 17 17 18 19 19 20 20 18 17 16 16 15 15 17 17 17 17 17 17 17 17 18 19 20 20 20 20 20 20 21 21 22 22 22 21 21 21 21 22 22 21 21 21 20 21 21 22 22 21 20 20 20 19 18 18 17
31 30 30 30 30 28 27 25 22 20 19 19 19 18 18 18 18 18 17 17 18 19 19 20 20 20 19 18 17 17 17 18 18 17 17 18 17 16 17 18 18 19 20 20 20 20 20 20 20 21 21 21 21 21 22 22 22 22 22 21 21 21 21 21 21 21 20 20 19 19 18 17 17 18
30 30 30 30 30 30 28 26 23 21 20 20 20 19 19 19 19 19 18 18 19 19 20 21 21 21 21 20 19 19 18 18 18 17 17 17 17 17 18 18 18 18 18 18 18 18 19 19 20 20 20 20 20 21 21 21 21 21 22 22 21 21 21 20 20 20 20 19 18 17 16 16 18 18
29 29 29 28 29 29 29 28 25 22 22 22 21 20 20 20 20 20 19 19 19 20 20 21 20 21 22 21 20 19 18 18 18 17 17 17 17 18 19 18 17 16 16 17 17 17 17 18 19 19 19 19 20 20 21 21 21 21 21 21 21 20 18 17 17 18 19 18 17 16 15 15 16 17
27 27 27 28 28 29 30 29 27 25 24 23 22 22 21 21 21 21 21 20 20 20 21 21 21 22 23 22 20 19 18 18 18 17 16 17 17 17 18 17 15 13 14 15 16 15 15 17 17 17 17 17 18 19 19 19 19 19 19 19 18 17 16 15 15 15 16 16 16 16 14 14 14 15
26 26 27 28 28 29 30 30 28 26 25 24 23 23 23 23 22 22 22 21 21 21 21 21 21 21 21 21 19 19 18 17 17 17 16 16 17 16 16 16 14 12 12 14 15 15 14 15 15 14 14 14 15 15 15 15 16 16 16 16 16 15 15 15 15 14 13 13 15 15 14 13 14 16
28 28 28 28 28 29 30 30 29 27 26 24 24 24 24 24 24 24 23 22 21 21 21 21 21 20 19 19 18 17 16 16 17 17 17 17 16 16 15 14 13 13 13 13 15 14 13 13 14 13 12 13 13 14 14 15 14 14 15 15 14 14 14 14 14 13 11 11 13 14 14 14 16 17
30 30 29 29 29 30 31 30 29 28 26 25 25 25 26 26 25 24 23 23 22 21 21 21 21 19 18 18 18 15 15 16 17 17 18 17 16 15 15 14 13 13 12 12 14 14 12 11 12 12 11 12 13 13 14 14 13 12 14 14 14 14 14 14 13 12 11 11 12 13 14 15 16 16
30 31 30 30 30 31 32 31 29 28 27 26 27 28 28 27 27 26 25 24 22 21 21 21 20 19 18 18 17 15 16 16 17 18 18 18 17 16 15 14 13 12 12 12 13 13 11 10 10 9 9 10 11 11 13 13 13 12 13 13 13 13 13 12 11 11 11 11 12 12 13 14 15 15
30 30 30 30 32 33 33 32 31 29 28 29 30 30 29 29 29 28 27 25 24 22 21 21 20 19 18 17 16 16 16 17 17 18 18 18 18 17 15 14 13 11 11 11 12 11 10 8 9 9 9 11 12 12 12 13 14 13 13 12 12 12 12 11 11 10 10 10 11 12 13 14 14 14
30 30 29 30 32 33 34 34 33 32 31 32 33 33 31 31 31 30 27 26 25 23 22 22 21 19 18 17 16 16 17 17 18 19 19 19 18 17 15 14 12 9 9 9 9 10 10 10 11 13 13 13 13 13 13 13 13 13 12 12 12 11 11 11 10 10 10 10 11 13 13 14 14 15
30 30 30 30 31 33 34 34 33 33 33 33 34 34 33 33 33 32 29 27 25 23 22 22 21 19 18 17 17 17 17 17 18 20 20 19 17 15 14 13 12 10 9 9 10 12 13 14 14 16 16 16 15 14 13 13 13 12 12 12 12 12 12 11 11 11 11 11 12 13 14 14 15 16
31 31 31 31 30 31 32 32 33 34 34 34 34 34 34 34 34 31 29 28 26 24 22 22 21 19 18 18 18 17 16 17 18 19 18 17 15 14 13 13 12 10 9 10 12 13 14 15 15 16 15 15 14 13 13 12 12 12 12 12 12 12 12 11 11 11 12 13 13 14 14 14 16 17
29 30 30 31 30 30 31 32 33 33 34 33 32 32 33 35 34 30 29 29 27 24 23 22 21 19 19 19 18 17 16 16 16 16 16 16 15 14 13 11 10 9 10 12 13 13 14 13 13 13 13 13 12 11 10 10 10 9 9 9 10 10 11 11 11 12 13 13 14 14 14 15 17 20
27 28 28 29 29 29 30 31 32 33 33 33 32 31 32 34 32 29 30 29 26 24 23 22 21 20 19 19 18 17 17 16 15 15 15 13 12 12 11 10 9 9 10 11 11 11 10 9 8 8 10 12 12 10 8 9 9 8 8 8 8 9 9 10 11 11 12 13 14 15 16 17 18 19
26 26 27 28 28 28 28 29 30 31 32 32 32 32 32 31 30 30 30 29 25 24 23 22 20 20 19 19 18 17 16 15 14 14 13 11 10 10 9 10 10 10 10 9 9 8 8 7 7 7 9 9 9 9 9 9 9 10 10 10 10 10 10 10 11 12 13 14 15 16 16 17 16 16
25 25 26 26 26 27 28 28 29 30 31 31 31 31 31 30 29 30 30 27 24 22 22 21 20 20 19 18 17 16 14 13 12 12 12 11 9 9 9 9 10 10 9 9 9 9 9 9 9 10 9 7 6 8 9 9 9 11 12 12 12 12 13 14 14 14 13 14 14 14 14 14 13 14
22 22 22 22 23 24 25 27 28 29 31 31 30 30 30 30 29 31 32 28 24 22 22 21 21 20 19 17 16 14 12 11 11 11 11 11 10 9 9 9 10 10 10 9 9 9 9 8 8 8 8 8 8 9 10 11 11 12 13 12 13 14 15 15 15 14 13 13 14 13 12 11 12 14
19 20 20 20 20 22 24 24 25 27 29 31 31 30 30 30 31 32 33 29 26 24 23 22 21 20 18 16 14 12 11 11 10 11 11 11 11 10 10 10 11 10 9 9 9 9 8 7 7 7 8 9 10 11 11 12 12 12 12 13 14 15 16 15 14 13 12 11 10 10 9 10 12 13
17 19 20 20 20 22 24 24 24 25 27 29 30 29 29 30 32 32 30 27 26 26 24 22 21 19 17 16 15 14 13 11 10 10 11 12 12 11 10 10 10 9 8 8 8 8 8 7 7 8 9 10 10 11 11 12 12 13 14 15 15 14 13 12 11 9 8 8 8 8 9 10 11 11
15 17 19 20 20 20 22 23 23 22 24 26 28 29 29 30 30 29 26 23 24 24 23 22 21 19 18 17 16 15 14 12 11 11 11 12 12 11 10 10 9 8 8 9 9 9 8 8 8 8 8 8 9 10 11 12 12 12 12 11 9 8 7 7 7 7 7 8 8 8 8 8 9 9
13 15 16 16 14 14 16 20 21 21 22 24 26 28 27 28 28 26 23 21 22 22 22 22 21 20 19 18 17 16 14 12 12 12 12 13 13 12 11 11 10 9 9 8 8 8 8 8 8 7 7 8 8 9 9 9 7 5 3 2 2 2 1 2 4 5 5 5 5 4 5 5 6 7
11 10 10 10 10 10 12 16 20 23 24 24 25 26 26 27 27 25 23 23 22 22 21 22 21 19 18 17 16 15 14 13 13 13 13 13 13 12 11 11 10 9 8 8 8 8 8 7 6 6 6 5 5 5 3 2 2 2 3 3 4 3 2 1 1 2 2 1 1 1 2 3 4 6
8 5 3 3 4 5 6 7 12 17 19 21 22 22 21 23 25 24 22 21 20 19 19 18 17 16 15 15 15 16 15 14 13 12 12 12 12 11 10 10 10 10 9 8 8 8 7 6 5 4 3 2 1 2 3 4 4 4 4 4 3 3 2 2 2 1 2 1 1 1 2 2 4 7
7 4 2 2 2 3 3 4 6 9 11 13 14 15 18 21 21 20 19 18 17 16 15 13 12 13 14 15 16 16 15 13 12 11 12 12 11 11 11 11 11 10 10 9 8 8 7 7 6 5 4 4 4 5 6 6 6 6 5 4 3 2 2 2 2 2 1 1 2 3 3 3 3 6
8 7 6 6 6 6 6 6 6 7 9 10 10 11 14 16 15 15 16 15 14 13 13 12 12 14 16 16 16 15 13 12 12 12 11 12 11 11 11 11 11 11 11 10 9 9 9 8 6 5 5 5 5 5 5 6 6 6 5 5 4 4 3 3 2 1 1 3 4 5 7 7 6 7
10 9 9 9 9 8 8 7 6 6 7 9 9 9 9 10 10 11 12 12 12 12 12 11 12 13 15 15 15 14 14 13 12 11 11 11 11 11 11 11 10 9 8 10 11 11 10 8 6 5 5 5 5 4 4 4 5 4 4 5 6 6 6 5 3 2 3 4 5 7 9 10 10 10
9 9 10 10 10 9 9 9 9 9 9 10 10 10 10 11 12 13 14 14 14 14 14 13 14 15 15 16 16 16 15 12 11 10 11 12 12 11 11 10 9 8 8 10 12 11 9 8 7 6 5 4 4 3 3 3 4 3 2 4 6 7 7 6 5 5 5 6 7 9 11 13 14 15
9 8 8 8 9 9 9 9 9 11 12 13 14 15 15 15 16 16 17 17 16 16 15 15 16 17 17 16 16 15 14 13 12 12 12 11 11 11 11 10 10 9 10 10 10 8 7 8 7 7 5 4 2 1 0 2 3 2 2 4 6 7 8 8 7 7 7 8 10 11 13 15 17 17
10 9 9 10 10 10 9 8 9 11 13 14 15 15 16 17 17 17 17 17 16 16 15 15 16 18 18 17 16 15 14 13 12 11 10 10 10 11 11 11 10 9 9 8 7 7 7 7 6 5 5 3 1 1 2 2 2 1 2 4 5 6 8 9 9 10 10 11 12 14 16 17 17 16
11 12 13 13 12 10 9 9 9 11 12 13 14 16 16 17 17 17 16 16 15 15 14 14 15 16 17 16 16 16 15 14 12 10 10 9 10 11 11 11 10 9 9 8 7 7 6 6 5 5 4 2 1 2 2 2 2 1 2 5 6 7 8 9 11 12 13 13 15 17 18 17 15 14
13 14 14 13 12 10 10 9 9 10 12 13 14 16 16 16 16 15 14 14 13 13 14 14 14 14 15 15 15 15 14 13 11 11 11 10 10 11 11 10 10 9 8 8 8 6 5 5 6 6 5 4 4 4 3 3 3 4 5 6 6 8 9 9 11 13 14 15 17 17 16 15 14 14
14 15 14 13 11 10 10 10 10 10 11 13 14 15 16 15 14 13 12 12 12 12 13 13 13 14 14 14 14 13 13 12 11 11 11 10 10 10 9 9 9 8 8 8 8 7 7 7 7 7 6 6 5 5 5 4 4 5 5 5 5 6 8 10 11 13 14 15 16 14 13 13 14 14
15 16 14 12 11 10 9 9 10 10 12 13 14 14 14 12 11 11 12 12 12 13 13 13 14 14 14 14 14 13 12 11 10 10 10 10 9 9 8 7 7 8 8 8 7 7 8 8 7 7 7 7 7 7 7 6 6 6 6 5 4 5 7 8 9 11 13 13 13 12 12 13 13 13
16 16 14 12 11 9 8 8 9 10 12 14 14 14 12 11 10 10 11 12 13 14 14 14 14 14 14 13 13 12 11 9 9 8 9 9 9 9 8 8 7 7 7 7 7 8 8 8 8 8 8 8 8 8 8 8 8 7 6 5 5 5 6 7 7 8 9 9 10 11 13 14 13 12
Wind_Direction
241 241 243 248 259 264 257 259 268 270 272 275 274 272 271 275 281 286 288 290 291 291 292 296 295 281 269 267 265 263 263 264 263 260 257 254 252 251 253 255 257 256 251 246 245 247 249 252 255 256 258 260 261 263 266 269 271 273 276 277 277 281 285 289 294 296 296 297 296 294 288 276 268 267
245 243 242 244 250 256 256 259 267 269 272 276 276 273 272 272 274 276 280 284 287 288 288 292 298 294 282 273 267 263 264 265 264 264 261 257 256 255 254 252 251 250 248 247 248 252 256 260 261 260 260 261 262 263 266 268 268 270 275 277 276 278 283 289 295 296 296 296 293 289 282 273 271 272
246 246 244 243 244 249 256 262 268 270 273 279 279 274 271 271 272 271 272 276 281 285 286 288 293 294 289 282 274 271 270 269 268 266 264 260 257 257 256 255 252 249 248 250 254 258 264 268 267 265 264 264 265 266 269 270 270 272 276 277 276 279 284 290 292 292 291 289 286 283 278 275 274 275
241 244 244 243 242 247 256 263 269 273 275 277 277 272 268 267 267 266 265 269 275 281 283 286 291 291 287 282 278 276 276 276 273 269 267 264 259 258 259 260 258 254 252 253 257 260 265 269 269 266 264 265 267 269 272 273 272 272 274 275 276 279 284 287 288 289 288 286 283 279 276 275 275 275
236 240 242 244 244 247 255 262 268 273 275 275 273 268 265 264 263 264 264 267 273 278 280 284 289 288 285 282 279 276 276 278 275 270 268 267 265 262 260 260 259 257 255 255 256 259 262 265 266 263 261 264 268 271 274 274 272 271 272 274 277 279 282 284 285 287 286 284 281 277 274 273 273 274
236 237 240 242 245 248 254 260 266 270 271 270 268 263 261 261 262 265 266 268 271 275 279 281 284 284 283 282 279 275 275 276 274 271 269 267 267 265 262 261 260 258 257 256 256 257 259 261 262 260 259 262 266 270 273 274 270 269 272 277 280 281 282 283 284 285 285 284 281 276 273 271 271 273
241 240 239 239 241 246 253 258 263 266 264 262 259 257 257 258 261 264 266 266 268 273 277 279 280 282 283 282 279 276 275 276 275 273 271 267 266 265 265 264 263 261 260 259 258 257 258 259 259 258 258 260 264 267 271 272 271 271 273 278 282 282 282 283 284 282 281 280 279 277 274 271 272 273
248 245 243 240 238 242 250 256 259 260 258 255 254 253 252 254 257 261 264 263 264 268 272 275 278 281 283 283 280 278 276 274 274 273 270 268 266 266 267 267 266 265 263 262 261 261 260 260 258 258 258 258 261 265 268 269 271 272 274 277 279 278 278 279 281 280 277 275 275 275 274 272 272 272
252 249 247 245 241 239 244 250 255 255 253 252 251 250 248 250 255 261 264 264 264 265 268 272 274 277 281 283 281 278 275 272 271 272 271 270 269 270 270 271 270 268 266 265 264 264 263 262 260 259 258 256 258 263 266 267 270 273 274 276 276 274 273 275 278 279 277 274 272 272 273 273 272 271
254 252 250 248 244 242 243 246 250 251 250 249 249 247 247 251 256 261 264 266 265 265 268 270 271 272 277 281 279 274 271 270 270 271 273 275 275 276 275 273 271 269 268 267 266 266 266 265 262 259 258 258 259 262 265 266 270 272 273 274 274 273 273 274 276 277 276 274 270 268 269 271 272 273
256 255 253 249 245 245 245 245 246 247 249 248 247 248 250 254 256 258 260 263 264 266 269 269 270 272 273 275 275 271 268 268 269 272 276 279 279 278 277 274 272 270 270 270 270 270 270 268 265 261 259 261 263 264 266 269 271 272 271 272 273 273 273 274 275 275 275 274 270 268 267 267 270 273
257 258 256 251 247 246 246 243 242 244 248 249 249 250 252 253 252 253 256 259 261 263 266 267 269 270 270 271 273 271 267 266 269 272 276 278 278 278 277 276 277 276 276 276 275 274 272 270 267 263 260 261 263 265 267 269 271 271 271 272 272 272 272 273 273 273 274 275 274 272 269 266 268 271
257 256 256 253 249 247 245 242 240 241 247 251 252 253 253 252 251 252 256 258 259 261 263 266 268 270 270 270 271 270 269 268 269 271 272 275 278 278 278 278 280 281 281 279 277 275 274 271 267 264 261 260 262 265 266 268 269 270 271 271 271 271 273 272 270 269 271 274 275 275 271 265 265 268
256 254 254 253 250 248 245 241 239 239 244 250 254 255 254 252 251 253 256 260 262 263 265 266 268 269 269 270 269 269 270 268 267 267 270 275 278 277 279 282 282 280 279 279 277 276 274 272 268 265 263 262 263 264 267 269 270 270 270 269 270 272 274 274 272 268 266 268 271 273 270 264 262 265
256 254 254 254 253 249 244 240 239 240 243 247 251 254 254 252 251 253 257 263 265 265 266 266 267 267 269 271 271 270 270 267 264 265 269 273 275 277 281 285 284 279 276 276 277 275 272 271 270 269 267 266 265 267 269 271 270 270 269 269 270 272 274 275 274 272 267 265 268 272 271 268 265 265
257 256 256 256 254 249 243 240 241 243 245 247 249 252 254 254 253 253 257 263 267 267 267 267 267 269 272 274 273 271 270 266 263 263 265 267 269 273 278 282 285 281 274 274 275 275 273 273 273 272 270 268 268 269 271 271 271 270 269 270 270 270 271 273 274 275 271 262 261 266 271 272 270 269
256 257 259 258 254 247 241 239 242 245 245 247 249 251 253 254 254 255 258 261 264 266 266 266 268 271 274 276 275 272 267 262 260 260 262 263 265 267 270 275 278 276 271 272 275 276 275 274 275 274 271 270 270 271 272 272 271 268 266 268 270 269 271 273 275 278 273 261 257 265 274 276 274 276
255 256 256 257 254 247 242 242 245 246 245 246 248 250 252 254 255 257 259 261 263 265 265 265 268 272 275 276 275 269 259 255 256 258 260 260 259 261 264 267 269 268 269 272 276 277 276 274 275 275 273 272 273 273 274 274 270 264 264 267 268 269 270 269 267 269 270 270 269 272 278 278 278 281
253 254 254 255 254 250 246 245 246 248 248 247 247 248 249 252 255 256 258 260 263 266 267 267 267 269 271 272 269 261 253 252 254 257 258 258 258 260 263 266 266 266 268 272 274 276 279 276 272 273 275 278 279 279 277 276 272 269 269 270 270 271 269 263 261 265 271 275 276 277 279 282 286 290
251 252 253 253 253 252 250 248 247 248 250 250 251 251 251 253 255 256 257 259 261 262 265 266 265 265 267 267 264 258 253 251 251 252 253 254 257 259 260 262 264 266 271 274 271 270 272 269 267 274 282 284 285 282 278 274 273 271 270 269 267 267 265 263 266 273 277 279 281 285 287 290 293 294
250 251 251 251 251 251 251 250 249 250 251 252 254 254 254 255 255 255 256 257 257 258 261 262 262 264 264 263 260 258 256 252 247 245 246 249 253 257 258 261 266 267 269 269 265 264 266 268 273 281 285 285 283 279 274 271 271 270 268 265 262 260 260 265 271 275 279 283 286 289 291 292 292 292
246 248 249 249 250 251 251 251 250 250 251 252 254 255 256 256 255 254 255 256 254 255 257 257 258 260 261 259 258 258 257 251 244 242 244 245 248 250 252 258 261 256 254 260 266 269 272 273 274 279 282 282 278 272 267 265 266 265 265 262 258 256 258 264 269 273 277 283 287 290 293 293 293 293
248 248 248 247 248 250 251 251 250 250 249 250 252 254 255 255 254 253 253 254 254 252 251 252 255 256 255 254 255 254 252 248 245 243 242 240 239 238 239 245 250 251 256 264 268 270 272 272 274 277 279 279 277 270 261 259 262 262 261 259 253 253 259 262 265 272 279 284 289 290 291 292 294 297
252 251 250 248 246 246 249 250 250 249 248 248 249 250 251 251 251 249 249 251 251 249 248 249 251 250 249 249 248 245 243 242 241 241 240 236 232 232 234 239 250 261 267 269 270 272 275 276 275 273 271 270 272 271 263 260 263 260 257 255 252 252 259 264 269 277 282 287 290 289 290 295 299 300
254 254 254 254 252 250 249 250 250 249 248 247 247 246 246 249 249 246 246 246 245 243 243 245 246 246 245 243 240 237 237 237 237 238 239 233 225 228 238 248 258 266 266 268 273 274 275 278 277 275 275 267 258 259 266 269 268 264 258 259 262 266 270 274 278 281 284 288 289 289 293 299 300 300
254 255 256 257 258 256 254 251 249 248 246 245 244 243 243 245 245 242 242 240 236 235 238 240 242 242 240 237 233 232 233 234 231 228 226 222 221 231 245 254 258 258 255 261 270 264 259 264 263 269 281 270 244 246 265 266 258 260 262 258 258 262 264 267 270 273 279 285 285 287 295 301 302 306
255 256 256 256 256 256 254 251 248 246 244 241 240 240 240 241 240 240 241 237 231 231 235 236 236 235 234 232 230 229 231 227 218 213 213 217 226 236 246 251 253 254 252 256 262 260 257 259 254 256 270 270 243 247 263 264 261 268 273 270 268 269 269 270 272 274 280 284 283 287 300 307 308 311
257 256 257 259 259 257 254 251 249 246 242 239 237 236 237 237 238 239 238 232 226 227 230 231 231 229 228 229 227 223 219 212 209 212 215 218 225 235 243 250 254 255 252 252 256 259 261 263 261 262 270 276 273 267 269 275 279 280 280 281 282 283 282 280 277 274 275 277 279 287 300 304 302 304
258 257 259 263 266 265 260 253 249 246 241 237 235 234 234 235 236 237 235 228 222 223 225 225 226 226 224 221 213 202 197 201 212 222 223 222 228 235 242 250 255 251 245 244 251 258 260 259 262 268 273 280 286 286 285 287 287 285 284 284 283 283 282 279 271 265 266 268 271 280 288 288 292 299
257 259 261 261 264 268 264 253 247 246 241 235 232 231 232 233 234 235 235 229 222 220 220 220 222 221 214 206 198 194 198 206 218 229 230 229 232 236 243 252 254 248 242 245 251 253 253 254 259 268 274 278 282 284 284 283 283 282 282 282 282 282 281 275 262 250 250 259 266 274 281 285 290 295
255 259 260 259 264 271 263 247 240 242 239 232 230 230 231 234 235 235 234 229 221 216 216 216 215 208 201 198 199 201 204 208 214 223 228 230 233 238 242 243 242 243 245 247 249 248 248 251 255 261 268 273 276 278 279 278 278 278 278 281 287 288 281 270 252 236 241 259 271 279 285 290 294 299
252 259 260 260 267 273 257 236 230 234 233 227 226 227 229 236 239 235 226 218 214 212 212 211 207 200 196 199 203 205 205 207 212 220 226 230 237 239 234 227 230 240 243 242 242 242 240 240 243 251 261 270 274 276 277 276 274 270 272 310 0 351 293 256 240 236 248 266 276 281 289 295 301 313
252 261 263 261 266 269 256 236 228 230 230 228 229 230 230 231 230 222 210 204 204 205 205 204 202 200 202 205 206 206 208 211 217 225 229 231 233 231 224 222 230 238 237 234 233 231 228 227 230 240 253 262 266 268 266 241 174 132 102 80 72 68 70 110 196 217 229 250 264 316 353 335 324 332
243 254 264 264 254 253 253 237 224 223 224 224 224 218 208 205 205 203 199 198 200 203 206 206 205 206 209 209 206 205 211 219 224 227 226 223 222 221 221 224 228 227 226 227 225 219 213 208 206 208 209 202 168 120 112 115 113 104 93 89 91 84 69 63 72 104 113 94 48 30 37 15 338 337
225 232 239 228 194 183 177 177 191 201 205 207 203 188 179 184 192 195 197 200 204 210 217 220 217 216 216 215 212 213 218 224 222 216 212 213 216 220 221 219 217 219 223 225 218 208 197 186 178 169 154 135 117 107 106 105 97 88 84 82 78 65 44 40 51 74 86 33 336 326 334 346 336 326
218 221 226 229 223 206 192 192 203 210 205 201 198 189 188 194 198 199 203 208 211 215 221 223 219 215 214 213 213 213 212 210 207 206 210 214 215 212 210 207 209 218 224 218 206 197 186 176 170 161 146 134 124 111 103 97 91 81 70 57 45 34 26 25 33 32 335 325 325 325 330 337 337 320
216 216 221 228 231 223 209 203 210 211 196 189 191 194 195 192 186 187 195 199 197 197 202 204 201 200 201 200 198 197 197 198 201 205 206 204 200 197 196 197 200 206 205 195 189 186 180 174 172 168 158 148 136 122 113 101 88 74 56 40 28 21 20 21 17 6 350 341 338 333 331 332 333 326
214 216 225 231 229 221 208 198 194 186 174 171 174 175 172 168 166 169 173 173 172 173 178 181 182 185 189 190 188 188 191 193 193 193 190 188 188 188 185 182 177 170 167 172 178 180 178 177 177 176 172 165 145 132 128 99 78 68 41 21 16 14 14 13 5 355 347 339 334 332 328 326 325 324
213 214 218 215 208 200 193 189 186 179 171 168 167 165 162 162 163 163 162 162 164 169 174 179 183 185 187 188 188 188 189 185 182 181 179 178 178 176 171 166 163 160 160 166 172 176 176 175 175 176 179 177 164 160 155 45 62 70 0 355 2 3 1 360 356 347 337 329 326 325 323 323 323 322
206 194 183 175 173 171 170 171 172 170 167 166 165 162 161 161 159 157 155 154 156 160 166 173 180 182 182 182 182 182 181 179 176 174 173 172 170 169 167 165 164 166 168 171 176 176 170 167 168 174 179 179 179 267 306 351 46 94 328 336 340 340 340 341 339 334 328 322 320 322 325 327 328 327
192 178 171 168 165 162 162 163 164 164 163 161 159 159 158 156 153 149 147 147 148 150 155 162 169 171 171 171 172 173 173 174 172 169 168 167 165 167 169 170 171 174 177 179 180 175 168 171 183 192 199 217 270 287 295 330 359 345 313 311 312 314 317 321 324 324 321 320 322 327 331 333 335 338
181 173 171 170 167 164 165 168 168 167 165 162 159 158 155 152 151 151 151 153 155 158 160 162 163 162 163 165 167 169 170 170 170 170 171 170 170 172 176 179 183 187 188 185 183 186 194 201 205 214 232 253 269 276 284 305 326 321 310 303 301 303 307 313 318 319 320 323 327 332 336 341 345 350
179 176 175 174 170 166 166 169 170 171 171 168 164 160 157 155 157 160 162 165 168 170 171 171 169 168 169 169 169 170 170 169 172 176 177 178 179 182 187 191 195 200 202 196 194 205 220 221 219 229 244 253 261 271 279 287 292 294 295 295 294 294 299 305 311 316 322 328 332 337 343 349 352 356
183 179 178 176 174 173 172 172 171 172 174 172 167 163 163 164 168 171 172 172 172 173 174 174 173 173 174 175 176 175 173 172 175 179 183 186 185 186 191 198 203 209 212 208 205 212 223 229 235 244 254 260 264 268 274 280 279 272 271 275 276 281 291 302 312 318 322 328 335 344 352 357 2 6
183 181 183 185 185 183 180 176 168 165 170 174 171 168 165 161 161 166 170 171 172 173 173 173 172 173 176 180 182 181 178 179 179 181 187 192 192 194 200 206 211 216 217 215 215 220 226 235 244 250 255 260 262 264 269 273 270 262 258 257 256 268 293 313 324 327 329 339 352 359 4 8 11 15
Height
1549 1549 1550 1551 1551 1552 1553 1553 1554 1554 1554 1554 1554 1554 1554 1554 1553 1552 1552 1551 1552 1552 1552 1552 1552 1552 1552 1552 1552 1552 1553 1553 1554 1554 1554 1554 1554 1555 1555 1555 1555 1555 1555 1555 1555 1556 1556 1556 1556 1556 1556 1556 1556 1556 1556 1556 1556 1555 1555 1555 1555 1555 1555 1555 1554 1554 1553 1552 1551 1551 1550 1550 1550 1551
1546 1546 1547 1548 1549 1550 1550 1551 1552 1552 1552 1552 1552 1552 1552 1552 1551 1551 1550 1549 1549 1550 1550 1551 1551 1551 1551 1551 1551 1551 1551 1551 1552 1552 1552 1552 1553 1553 1553 1553 1553 1553 1554 1554 1554 1554 1554 1554 1554 1554 1554 1554 1554 1554 1554 1554 1554 1554 1554 1554 1554 1553 1553 1553 1553 1552 1551 1551 1550 1550 1550 1549 1549 1550
1543 1544 1544 1545 1546 1547 1548 1548 1549 1549 1550 1550 1550 1550 1550 1550 1549 1549 1549 1547 1547 1548 1549 1549 1549 1549 1549 1549 1549 1549 1550 1550 1550 1550 1550 1550 1551 1551 1551 1551 1551 1551 1552 1552 1552 1553 1553 1553 1553 1553 1553 1553 1553 1552 1552 1552 1552 1552 1552 1552 1552 1552 1551 1551 1551 1550 1550 1549 1549 1549 1548 1548 1548 1548
1540 1541 1541 1542 1543 1544 1544 1545 1546 1547 1547 1548 1548 1548 1548 1548 1547 1547 1547 1546 1545 1546 1547 1547 1547 1548 1547 1547 1547 1547 1548 1548 1548 1548 1548 1548 1549 1549 1549 1549 1549 1550 1550 1550 1551 1551 1551 1551 1551 1551 1551 1551 1551 1551 1551 1551 1551 1551 1551 1550 1550 1550 1550 1550 1549 1549 1548 1548 1547 1547 1547 1547 1547 1547
1537 1538 1538 1539 1540 1541 1541 1542 1543 1543 1544 1545 1545 1546 1546 1545 1546 1545 1545 1544 1543 1544 1545 1545 1545 1546 1545 1545 1545 1545 1545 1546 1546 1546 1546 1546 1547 1547 1547 1547 1548 1548 1548 1548 1549 1549 1549 1549 1550 1549 1550 1550 1550 1550 1550 1550 1550 1549 1549 1549 1549 1548 1548 1548 1548 1547 1547 1546 1546 1546 1546 1545 1545 1545
1534 1534 1535 1536 1537 1538 1538 1539 1540 1540 1541 1542 1542 1543 1543 1543 1543 1543 1543 1542 1541 1541 1542 1543 1543 1543 1543 1543 1543 1543 1543 1544 1544 1544 1544 1544 1545 1545 1545 1545 1546 1546 1546 1546 1546 1547 1547 1547 1547 1548 1548 1548 1548 1548 1548 1548 1548 1548 1548 1548 1547 1547 1547 1546 1546 1546 1545 1545 1545 1544 1544 1544 1544 1543
1531 1531 1532 1532 1533 1534 1535 1536 1537 1537 1538 1539 1539 1540 1541 1541 1541 1541 1541 1540 1539 1539 1540 1541 1541 1541 1541 1541 1541 1541 1541 1541 1541 1542 1542 1542 1543 1543 1543 1543 1543 1544 1544 1544 1544 1544 1545 1545 1545 1545 1546 1546 1546 1546 1546 1546 1546 1546 1546 1546 1546 1546 1545 1545 1544 1544 1544 1543 1543 1543 1542 1542 1542 1542
1528 1529 1529 1530 1530 1531 1532 1533 1534 1534 1535 1535 1536 1537 1538 1538 1538 1539 1538 1538 1537 1537 1537 1538 1538 1539 1539 1539 1539 1539 1539 1539 1539 1539 1540 1540 1540 1541 1541 1541 1541 1541 1542 1542 1542 1542 1542 1542 1543 1543 1544 1544 1544 1544 1544 1544 1544 1544 1544 1544 1544 1544 1543 1543 1542 1542 1541 1541 1541 1541 1540 1540 1540 1540
1525 1526 1526 1527 1528 1528 1529 1529 1530 1531 1532 1532 1533 1534 1535 1535 1536 1536 1536 1535 1535 1535 1534 1535 1536 1536 1536 1536 1536 1536 1536 1536 1537 1537 1537 1538 1538 1538 1538 1538 1539 1539 1539 1539 1539 1539 1539 1540 1540 1540 1541 1541 1541 1541 1542 1541 1541 1542 1542 1542 1542 1541 1540 1540 1540 1539 1539 1539 1539 1538 1538 1538 1538 1538
1521 1522 1523 1524 1525 1526 1526 1526 1527 1528 1529 1530 1530 1531 1532 1533 1533 1533 1533 1533 1533 1532 1532 1532 1533 1533 1533 1533 1533 1533 1533 1534 1534 1535 1535 1535 1536 1536 1536 1536 1536 1536 1536 1536 1536 1536 1536 1537 1537 1538 1538 1538 1539 1539 1539 1539 1539 1539 1539 1539 1539 1538 1538 1537 1537 1537 1537 1536 1536 1536 1536 1536 1536 1536
1518 1519 1519 1521 1522 1523 1523 1524 1525 1525 1526 1527 1528 1529 1529 1530 1530 1530 1530 1530 1530 1530 1530 1530 1530 1530 1530 1530 1530 1530 1530 1531 1531 1532 1532 1532 1533 1533 1533 1533 1533 1533 1533 1533 1533 1533 1533 1534 1534 1534 1535 1535 1536 1537 1537 1536 1537 1537 1537 1536 1536 1536 1535 1535 1534 1534 1534 1534 1534 1533 1533 1533 1534 1534
1514 1515 1516 1517 1518 1519 1520 1521 1522 1523 1524 1524 1525 1526 1527 1527 1527 1527 1528 1528 1528 1527 1527 1527 1527 1527 1527 1527 1528 1528 1528 1528 1528 1529 1529 1529 1530 1530 1530 1530 1530 1530 1530 1530 1530 1531 1531 1531 1531 1531 1532 1533 1533 1533 1533 1533 1534 1534 1534 1533 1533 1533 1532 1532 1532 1532 1531 1531 1531 1531 1531 1531 1531 1531
1510 1511 1512 1513 1514 1516 1517 1518 1519 1520 1521 1522 1523 1523 1524 1524 1524 1525 1525 1525 1525 1525 1524 1524 1525 1525 1525 1525 1525 1525 1525 1525 1526 1526 1526 1526 1527 1527 1527 1527 1528 1528 1528 1528 1528 1528 1528 1528 1528 1528 1529 1530 1530 1530 1530 1530 1530 1531 1530 1530 1530 1530 1530 1530 1530 1530 1529 1529 1529 1529 1529 1529 1529 1529
1506 1507 1508 1509 1511 1512 1513 1515 1516 1517 1518 1519 1520 1521 1521 1522 1522 1522 1522 1522 1522 1522 1521 1522 1522 1522 1521 1522 1522 1522 1522 1523 1523 1524 1524 1524 1525 1525 1524 1525 1525 1525 1525 1525 1525 1526 1526 1525 1525 1526 1526 1527 1527 1527 1527 1527 1527 1528 1528 1528 1528 1528 1528 1528 1527 1527 1527 1527 1528 1527 1527 1527 1527 1527
1502 1503 1505 1506 1507 1508 1509 1510 1512 1513 1514 1515 1516 1518 1518 1519 1519 1519 1519 1519 1519 1519 1519 1519 1519 1519 1518 1519 1520 1520 1520 1520 1521 1521 1521 1521 1522 1522 1522 1522 1523 1523 1523 1523 1523 1523 1523 1523 1523 1523 1523 1524 1524 1524 1524 1524 1525 1525 1525 1525 1525 1525 1526 1526 1526 1525 1525 1526 1526 1526 1525 1525 1525 1526
1498 1500 1501 1502 1503 1504 1505 1507 1508 1510 1511 1512 1513 1514 1515 1516 1516 1516 1517 1517 1517 1516 1516 1516 1516 1515 1516 1516 1517 1517 1517 1518 1518 1518 1518 1518 1518 1519 1519 1520 1520 1521 1521 1521 1521 1521 1521 1521 1521 1521 1521 1521 1521 1521 1522 1522 1523 1524 1524 1524 1523 1524 1524 1524 1524 1524 1524 1524 1524 1524 1524 1524 1524 1524
1495 1496 1497 1498 1498 1500 1501 1503 1504 1506 1507 1508 1509 1510 1511 1512 1512 1513 1514 1514 1514 1513 1513 1513 1512 1513 1513 1513 1514 1514 1515 1515 1515 1516 1516 1516 1516 1516 1517 1518 1518 1519 1519 1519 1519 1519 1520 1519 1519 1520 1520 1519 1519 1520 1520 1521 1522 1523 1523 1522 1522 1522 1522 1522 1522 1522 1522 1522 1522 1522 1522 1522 1522 1522
1491 1492 1493 1494 1495 1496 1497 1499 1501 1502 1503 1504 1505 1506 1507 1507 1508 1509 1510 1510 1510 1510 1510 1509 1510 1510 1510 1510 1511 1511 1511 1512 1512 1513 1513 1513 1514 1514 1515 1515 1516 1516 1517 1517 1517 1517 1518 1518 1518 1518 1518 1518 1518 1518 1518 1519 1520 1521 1521 1521 1520 1520 1520 1520 1520 1520 1520 1520 1521 1521 1520 1520 1520 1519
1486 1488 1489 1490 1491 1492 1493 1495 1496 1498 1499 1500 1501 1502 1503 1503 1504 1505 1506 1506 1507 1506 1506 1507 1507 1507 1508 1508 1508 1508 1508 1509 1509 1510 1510 1511 1511 1512 1513 1513 1514 1514 1515 1516 1515 1515 1516 1516 1517 1517 1517 1517 1517 1517 1517 1517 1518 1519 1518 1518 1518 1518 1518 1519 1519 1519 1519 1519 1519 1519 1519 1519 1518 1517
1482 1483 1484 1486 1487 1488 1489 1490 1492 1494 1495 1496 1496 1497 1498 1499 1500 1501 1502 1503 1503 1503 1503 1504 1504 1504 1505 1505 1505 1505 1506 1506 1507 1507 1507 1508 1509 1510 1510 1511 1511 1512 1513 1514 1514 1513 1514 1515 1515 1516 1516 1516 1516 1516 1516 1516 1516 1516 1516 1516 1516 1517 1517 1517 1518 1518 1518 1518 1518 1518 1517 1517 1516 1515
1477 1479 1480 1481 1482 1483 1484 1486 1487 1489 1490 1491 1491 1492 1494 1495 1496 1497 1498 1499 1499 1500 1500 1501 1501 1501 1502 1502 1502 1503 1503 1503 1504 1504 1504 1505 1506 1507 1508 1509 1509 1510 1511 1512 1512 1512 1512 1513 1514 1514 1514 1514 1514 1514 1514 1514 1514 1514 1515 1515 1515 1515 1516 1516 1516 1516 1516 1516 1516 1516 1515 1515 1514 1513
1474 1475 1476 1477 1477 1478 1479 1481 1483 1484 1486 1486 1487 1487 1489 1490 1491 1492 1494 1496 1496 1496 1497 1497 1498 1498 1499 1499 1500 1500 1500 1501 1501 1501 1501 1502 1504 1505 1506 1506 1507 1508 1509 1510 1510 1510 1511 1511 1512 1512 1512 1512 1512 1512 1513 1513 1513 1513 1513 1513 1513 1514 1514 1514 1515 1515 1515 1514 1514 1514 1514 1513 1512 1511
1469 1470 1471 1472 1473 1473 1475 1476 1478 1479 1481 1481 1482 1483 1484 1484 1485 1488 1490 1491 1492 1493 1494 1494 1495 1495 1496 1496 1497 1497 1498 1498 1498 1499 1499 1500 1501 1502 1503 1504 1505 1506 1507 1507 1508 1508 1508 1509 1509 1509 1509 1509 1509 1510 1511 1511 1511 1511 1511 1512 1512 1512 1513 1513 1513 1513 1513 1513 1513 1512 1512 1511 1510 1509
1465 1466 1466 1467 1468 1469 1470 1471 1473 1474 1476 1477 1478 1479 1479 1478 1480 1484 1486 1487 1488 1489 1490 1491 1492 1492 1493 1493 1493 1494 1495 1495 1496 1497 1497 1498 1499 1500 1501 1502 1502 1504 1505 1505 1505 1506 1506 1506 1507 1507 1507 1507 1507 1508 1509 1509 1509 1510 1510 1510 1511 1511 1511 1511 1512 1512 1512 1511 1511 1510 1510 1509 1508 1507
1460 1461 1462 1462 1464 1465 1466 1467 1468 1469 1471 1472 1473 1474 1474 1474 1477 1480 1481 1482 1484 1485 1486 1488 1488 1489 1490 1490 1490 1491 1492 1493 1494 1495 1496 1496 1497 1498 1499 1499 1500 1502 1502 1502 1503 1503 1504 1504 1504 1505 1505 1505 1505 1506 1507 1507 1508 1508 1508 1509 1509 1509 1510 1510 1510 1510 1510 1509 1509 1508 1508 1507 1506 1505
1457 1457 1458 1458 1459 1460 1461 1462 1463 1464 1466 1467 1468 1469 1470 1471 1473 1475 1476 1478 1480 1481 1483 1484 1485 1486 1487 1487 1488 1489 1490 1491 1492 1493 1494 1495 1496 1496 1497 1497 1498 1500 1500 1500 1501 1502 1502 1502 1503 1503 1503 1503 1504 1505 1506 1506 1506 1507 1507 1507 1507 1508 1508 1508 1508 1508 1508 1507 1507 1506 1505 1505 1504 1503
1453 1454 1454 1454 1455 1456 1456 1457 1458 1459 1460 1461 1463 1464 1466 1467 1469 1471 1473 1475 1478 1479 1481 1482 1482 1483 1484 1485 1485 1487 1488 1489 1491 1492 1493 1493 1494 1495 1495 1496 1497 1498 1498 1499 1499 1500 1500 1501 1501 1501 1502 1502 1503 1504 1504 1504 1505 1505 1505 1506 1506 1506 1506 1506 1506 1506 1505 1505 1505 1504 1503 1503 1502 1501
1450 1450 1450 1450 1451 1451 1452 1453 1453 1454 1455 1456 1458 1460 1462 1463 1466 1467 1469 1472 1475 1476 1478 1480 1480 1481 1482 1483 1484 1485 1487 1488 1489 1490 1491 1492 1493 1493 1494 1494 1495 1496 1497 1497 1498 1498 1499 1499 1500 1500 1500 1501 1501 1502 1502 1503 1503 1503 1504 1504 1504 1504 1503 1503 1503 1503 1503 1503 1503 1502 1502 1501 1500 1500
1447 1447 1447 1447 1447 1447 1448 1448 1449 1450 1451 1452 1454 1456 1458 1460 1462 1463 1465 1468 1470 1472 1473 1476 1477 1478 1479 1481 1482 1484 1485 1486 1488 1489 1490 1491 1491 1492 1492 1493 1493 1494 1495 1496 1497 1497 1498 1498 1498 1499 1499 1499 1500 1500 1500 1501 1501 1501 1501 1501 1501 1501 1501 1500 1500 1501 1501 1501 1501 1500 1500 1499 1499 1498
1444 1444 1444 1444 1444 1444 1444 1444 1445 1446 1447 1448 1450 1452 1454 1456 1458 1459 1461 1465 1466 1467 1469 1471 1474 1476 1477 1478 1480 1481 1483 1484 1486 1487 1488 1489 1490 1490 1490 1491 1492 1493 1494 1495 1496 1496 1497 1497 1497 1498 1498 1498 1499 1499 1499 1499 1499 1499 1499 1499 1499 1498 1498 1498 1498 1498 1499 1499 1499 1498 1498 1497 1497 1496
1442 1442 1441 1441 1441 1440 1440 1441 1442 1443 1444 1445 1447 1449 1451 1453 1454 1456 1459 1462 1463 1464 1466 1468 1470 1472 1474 1476 1477 1479 1481 1482 1483 1485 1486 1487 1488 1488 1489 1489 1490 1492 1493 1494 1494 1495 1495 1496 1496 1497 1497 1497 1498 1498 1498 1498 1498 1497 1497 1497 1497 1496 1496 1496 1496 1496 1496 1496 1497 1496 1496 1495 1495 1494
1440 1439 1439 1439 1438 1438 1437 1438 1439 1441 1441 1442 1444 1445 1448 1449 1451 1453 1456 1458 1460 1462 1463 1465 1467 1469 1471 1473 1475 1477 1479 1480 1482 1483 1484 1485 1486 1487 1487 1488 1489 1490 1491 1492 1493 1494 1494 1495 1495 1496 1496 1496 1496 1496 1496 1496 1496 1496 1496 1496 1495 1495 1495 1494 1495 1495 1495 1495 1495 1495 1495 1494 1493 1493
1438 1438 1437 1437 1436 1436 1436 1436 1437 1438 1439 1440 1441 1443 1445 1447 1448 1449 1452 1454 1457 1459 1461 1463 1465 1466 1469 1471 1474 1476 1477 1479 1480 1481 1482 1483 1484 1485 1486 1487 1488 1489 1490 1491 1492 1493 1493 1494 1494 1495 1495 1495 1495 1495 1495 1495 1495 1495 1495 1495 1495 1495 1494 1494 1494 1494 1494 1494 1494 1494 1494 1493 1492 1492
1437 1437 1437 1436 1435 1435 1435 1434 1435 1436 1437 1438 1439 1441 1443 1445 1446 1447 1449 1451 1454 1458 1460 1462 1464 1466 1468 1470 1472 1474 1476 1478 1479 1480 1481 1482 1483 1484 1485 1486 1486 1487 1489 1490 1491 1492 1492 1493 1494 1494 1495 1495 1495 1495 1495 1495 1495 1495 1495 1495 1495 1494 1494 1494 1493 1493 1493 1493 1493 1493 1493 1493 1492 1491
1436 1437 1437 1436 1435 1434 1434 1434 1435 1435 1436 1437 1438 1439 1441 1444 1445 1446 1448 1450 1452 1455 1457 1459 1462 1464 1466 1468 1470 1472 1475 1477 1478 1479 1480 1481 1482 1483 1484 1485 1486 1487 1488 1489 1490 1491 1492 1493 1493 1494 1494 1495 1495 1495 1495 1495 1495 1495 1495 1495 1495 1494 1494 1493 1493 1493 1493 1493 1492 1492 1492 1492 1491 1490
1436 1436 1436 1436 1436 1435 1435 1435 1435 1435 1436 1438 1439 1439 1441 1443 1445 1446 1448 1449 1451 1453 1455 1457 1460 1462 1465 1467 1469 1471 1474 1476 1477 1478 1479 1480 1481 1482 1483 1484 1485 1486 1487 1488 1489 1491 1491 1492 1493 1494 1494 1494 1495 1495 1495 1495 1495 1495 1495 1495 1494 1494 1494 1493 1493 1492 1492 1492 1492 1491 1491 1491 1491 1490
1435 1435 1435 1435 1436 1435 1435 1435 1435 1435 1436 1438 1439 1440 1441 1442 1444 1445 1447 1448 1450 1452 1454 1455 1458 1461 1464 1467 1469 1471 1473 1475 1476 1477 1478 1479 1480 1481 1482 1483 1484 1485 1486 1487 1489 1490 1491 1492 1493 1493 1494 1494 1494 1495 1495 1495 1495 1495 1494 1494 1494 1494 1493 1493 1492 1492 1492 1491 1491 1491 1490 1490 1489 1489
1434 1434 1434 1434 1435 1435 1435 1435 1435 1435 1436 1437 1439 1440 1441 1442 1443 1445 1446 1447 1449 1451 1453 1455 1457 1461 1465 1467 1469 1471 1472 1474 1475 1476 1477 1478 1479 1480 1481 1483 1484 1484 1486 1487 1488 1490 1491 1491 1492 1492 1493 1493 1493 1493 1494 1494 1494 1494 1494 1494 1493 1493 1493 1492 1492 1492 1491 1491 1490 1490 1489 1489 1488 1487
1433 1433 1434 1434 1434 1434 1435 1435 1435 1435 1436 1438 1439 1440 1441 1442 1444 1445 1446 1447 1449 1451 1453 1455 1458 1461 1465 1467 1469 1470 1472 1473 1475 1476 1477 1478 1479 1480 1481 1482 1483 1484 1486 1487 1488 1489 1490 1490 1491 1491 1492 1492 1492 1492 1493 1493 1493 1493 1493 1493 1493 1492 1492 1491 1491 1491 1490 1490 1489 1489 1488 1488 1487 1485
1432 1433 1434 1434 1435 1435 1436 1436 1436 1436 1437 1438 1440 1441 1442 1443 1445 1446 1448 1449 1450 1451 1453 1456 1459 1461 1464 1466 1468 1470 1472 1473 1474 1476 1477 1478 1479 1480 1481 1482 1483 1484 1485 1487 1488 1488 1489 1489 1490 1490 1491 1491 1492 1492 1492 1492 1492 1492 1492 1492 1491 1491 1491 1490 1490 1489 1489 1488 1488 1487 1486 1486 1485 1484
1432 1433 1434 1435 1436 1436 1437 1437 1438 1438 1439 1440 1441 1442 1443 1445 1446 1448 1449 1450 1452 1453 1455 1458 1460 1462 1464 1465 1467 1469 1471 1473 1474 1475 1477 1478 1479 1480 1481 1482 1483 1484 1485 1486 1487 1487 1488 1489 1489 1489 1490 1490 1491 1491 1491 1491 1491 1491 1491 1491 1490 1489 1489 1488 1488 1487 1487 1486 1486 1485 1484 1484 1483 1482
1432 1433 1435 1435 1436 1437 1437 1438 1439 1440 1441 1441 1442 1443 1445 1446 1447 1449 1450 1452 1453 1455 1457 1459 1461 1462 1464 1466 1467 1469 1471 1472 1474 1475 1476 1477 1478 1479 1480 1481 1482 1483 1484 1485 1486 1486 1487 1487 1488 1488 1489 1489 1489 1490 1490 1490 1491 1490 1490 1489 1489 1488 1487 1487 1486 1485 1485 1484 1483 1483 1482 1482 1481 1481
1431 1433 1434 1436 1436 1437 1438 1438 1439 1440 1441 1442 1443 1444 1446 1447 1448 1450 1451 1453 1455 1456 1458 1460 1461 1463 1464 1466 1467 1469 1470 1472 1473 1474 1475 1476 1477 1478 1479 1480 1481 1482 1483 1484 1485 1485 1485 1486 1487 1487 1488 1488 1488 1488 1489 1489 1489 1489 1488 1488 1488 1487 1486 1485 1485 1484 1483 1483 1482 1481 1481 1480 1480 1480
1431 1432 1434 1435 1436 1437 1438 1438 1439 1440 1442 1443 1444 1445 1447 1448 1449 1451 1452 1454 1455 1457 1458 1460 1461 1463 1464 1466 1467 1468 1470 1471 1472 1473 1474 1475 1476 1477 1479 1480 1481 1481 1482 1482 1483 1484 1484 1485 1485 1486 1486 1486 1487 1487 1487 1487 1487 1487 1487 1487 1486 1486 1485 1485 1484 1484 1483 1482 1481 1480 1480 1480 1479 1479
1430 1432 1434 1435 1436 1437 1438 1439 1440 1441 1442 1444 1445 1447 1448 1449 1450 1452 1453 1454 1455 1457 1458 1460 1461 1462 1464 1465 1466 1467 1469 1470 1471 1471 1472 1474 1475 1476 1477 1478 1479 1480 1480 1481 1482 1482 1483 1483 1484 1484 1484 1485 1485 1485 1485 1485 1485 1485 1485 1485 1485 1485 1484 1484 1483 1483 1482 1481 1481 1480 1480 1480 1480 1480